sat.trackr.live / text

‹ back to catalog

STARLINK-35375

NORAD 66065 · 2025-235H

PAYLOAD ACTIVE UNKNOWN

§ Identity

Operator
Country
US
Launch date
2025-10-19
Launch site
AFETR
Launch vehicle
Mass (kg)
RCS (m²)

Purposes: comms

External: N2YO · Heavens-Above · Gunter

§ Orbital elements

Epoch: 2026-09-20T14:30:10.992960Z

Period
93.85 min
Inclination
53.1596°
Eccentricity
0.0001009
Mean motion
15.34394127 rev/d
Perigee alt
462.0 km
Apogee alt
463.4 km
Semi-major
6,840.9 km
B*
6.4344e-4
RAAN
59.2184°
Arg perigee
91.1443°
Mean anomaly
268.9675°
Rev number
5,277

§ Raw data

STARLINK-353751 66065U 25235H   26263.60429390  .00021421  00000+0  64344-3 0  99952 66065  53.1596  59.2184 0001009  91.1443 268.9675 15.34394127 52778

JSON: /api/v1/satellites/66065 · /tle

For live sub-satellite position, see the globe view (requires WebGL).

§ Visibility from observer

Set your observer location to see the next 7 days of passes ≥ 10°. The values pass through the URL so the page stays shareable.

No JS? Fill the form by hand. The geolocation button needs JavaScript.